This demonstration page uses our WeatherBlox Daily Observations layout. Learn more.

Left ArrowRight Arrow

Hourly Observations for June 30, 2017

Temp ( °F °C ) Dew Point ( °F °C ) Humidity (%) Winds ( mph kmh ) Pressure ( in mb ) Visibility ( mi km ) Precip ( " mm )
12:14 am 00:14 Cloudy 73 22.8 73 22.8 100 100 S 5 7 30.09 1019 10 16 0.00 0.00
12:53 am 00:53 Cloudy with Light Rain 72 22.2 72 22.2 100 100 SSE 8 13 30.08 1019 10 16 0.00 0.03
1:00 am 01:00 Cloudy 72 22.2 72 22.2 100 100 S 7 11 30.09 1019 10 16 0.00 0.03
1:17 am 01:17 Cloudy 72 22.2 72 22.2 100 100 S 8 13 30.09 1019 10 16 0.00 0.03
1:53 am 01:53 Cloudy 72 22.2 72 22.2 100 100 SSE 8 13 30.07 1018 8 13 0.00 0.03
2:53 am 02:53 Cloudy 71 21.7 71 21.7 100 100 S 8 13 30.06 1018 10 16 0.00 0.00
3:00 am 03:00 Cloudy 71 21.7 71 21.7 100 100 S 6 9 30.06 1018 10 16 0.00 0.00
3:53 am 03:53 Cloudy with Light Rain 71 21.7 71 21.7 100 100 S 3 6 30.04 1017 10 16 0.01 0.25
4:27 am 04:27 Cloudy with Light Rain 71 21.7 71 21.7 100 100 S 3 6 30.03 1017 10 16 0.00 0.03
4:53 am 04:53 Cloudy with Light Rain 71 21.7 71 21.7 100 100 S 3 6 30.04 1017 9 14 0.00 0.03
5:09 am 05:09 Cloudy with Rain 71 21.7 71 21.7 100 100 S 3 6 30.03 1017 5 8 0.03 0.76
5:26 am 05:26 Cloudy with Light Rain 71 21.7 71 21.7 100 100 S 6 9 30.03 1017 8 13 0.05 1.27
5:53 am 05:53 Cloudy with Light Rain 71 21.7 71 21.7 100 100 S 7 11 30.04 1017 7 11 0.10 2.54
6:19 am 06:19 Cloudy with Light Rain 71 21.7 71 21.7 100 100 S 6 9 30.03 1017 10 16 0.01 0.25
6:53 am 06:53 Cloudy 71 21.7 71 21.7 100 100 S 6 9 30.06 1018 10 16 0.01 0.25
7:53 am 07:53 Mostly Cloudy 72 22.2 72 22.2 100 100 SSW 3 6 30.07 1018 10 16 0.00 0.00
8:48 am 08:48 Cloudy 73 23 72 22 94 94 SSW 7 11 30.06 1018 10 16 0.00 0.00
8:53 am 08:53 Cloudy 73 22.8 72 22.2 96 96 SSW 7 11 30.08 1019 10 16 0.00 0.00
9:35 am 09:35 Cloudy 74 23.3 73 22.8 97 97 SW 7 11 30.09 1019 10 16 0.00 0.00
9:53 am 09:53 Cloudy with Light Rain 74 23.3 73 22.8 97 97 SSW 7 11 30.09 1019 6 10 0.00 0.03
10:49 am 10:49 Cloudy with Heavy Rain 73 23 73 23 100 100 Calm 30.09 1019 2 3 0.23 5.84
10:53 am 10:53 Cloudy with Heavy Rain 73 22.8 73 22.8 100 100 SSE 3 6 30.08 1019 2 3 0.25 6.35
11:23 am 11:23 Cloudy with Light Rain 75 23.9 75 23.9 100 100 S 3 6 30.06 1018 4 6 0.07 1.78
11:53 am 11:53 Cloudy with Heavy Rain 74 23.3 74 23.3 100 100 SSW 10 17 30.08 1019 2 3 0.19 4.83
12:04 pm 12:04 Cloudy with Rain 74 23.3 74 23.3 100 100 SW 12 19 30.09 1019 2 3 0.02 0.51
12:07 pm 12:07 Cloudy with Rain 74 23.3 73 22.8 97 97 SSW 10 17 30.09 1019 2 3 0.06 1.52
12:41 pm 12:41 Cloudy with Rain 73 22.8 73 22.8 100 100 SW 8 13 30.09 1019 5 8 0.14 3.56
12:53 pm 12:53 Cloudy with Light Rain 73 22.8 73 22.8 100 100 SW 8 13 30.08 1019 5 8 0.16 4.06
1:53 pm 13:53 Cloudy with Light Rain 75 23.9 74 23.3 96 96 SW 9 15 30.06 1018 10 16 0.04 1.02
2:53 pm 14:53 Cloudy 77 25 72 22.2 85 85 SW 8 13 30.03 1017 10 16 0.00 0.03
3:53 pm 15:53 Cloudy 79 26.1 71 21.7 77 77 SW 10 17 30.01 1016 10 16 0.00 0.00
4:39 pm 16:39 Cloudy 81 27.2 72 22.2 74 74 SW 8 13 30.00 1016 10 16 0.00 0.00
4:53 pm 16:53 Cloudy with Light Rain 80 26.7 72 22.2 76 76 SW 7 11 30.01 1016 10 16 0.00 0.03
5:53 pm 17:53 Cloudy with Light Rain 79 26.1 74 23.3 85 85 NW 10 17 30.01 1016 7 11 0.00 0.03
6:53 pm 18:53 Cloudy with Light Rain 77 25 75 23.9 94 94 SSW 3 6 30.01 1016 7 11 0.04 1.02
7:53 pm 19:53 Cloudy 78 25.6 76 24.4 93 93 SSW 6 9 30.02 1017 10 16 0.00 0.03
8:53 pm 20:53 Clear 76 24.4 74 23.3 94 94 SSW 5 7 30.00 1016 10 16 0.00 0.00
9:53 pm 21:53 Clear 75 23.9 74 23.3 96 96 S 6 9 30.00 1016 10 16 0.00 0.00
10:23 pm 22:23 Mostly Cloudy 75 23.9 74 23.3 96 96 SSW 7 11 30.00 1016 10 16 0.00 0.00
10:53 pm 22:53 Cloudy 75 23.9 74 23.3 96 96 S 8 13 30.01 1016 10 16 0.00 0.00
11:53 pm 23:53 Mostly Cloudy 74 23.3 73 22.8 97 97 SW 6 9 30.06 1018 10 16 0.00 0.00

Powered by AerisWeather